Location: Elaina
(34.1445°N, 106.7742°W)
Time: 01:04:52
(UTC+00:00)

Cosmos-2242 - Pass Details

Date: 11 December 2025
Orbit: 566 x 591 km, 82.5° (Epoch: 17 January)

Event Time Altitude Azimuth Distance (km) Brightness Sun altitude
Exits shadow 12:32:36 - 357° (N) 2,491 6.0 -18.2°
Reaches altitude 10° 12:34:03 10° 360° (N) 1,906 5.4 -17.9°
Maximum altitude 12:38:13 66° 82° (E) 636 3.3 -17.1°
Drops below altitude 10° 12:42:20 10° 165° (SSE) 1,877 6.0 -16.3°
Sets 12:44:31 0° 168° (SSE) 2,767 6.8 -15.8°
